Torna al catalogo

OSCAR 6

AttivoRadioamatoreSSO
NORAD 6236·PAYLOAD·🇺🇸 United States

Lanciato Oct 15, 1972 da Vandenberg Space Force Base

Loading…

Prossimi Passaggi (prossime 24 ore)

TLE

AggiornatoSource: Space-Track

Epoca: Sep 14, 2026, 01:55 UTC

1 06236U 72082B   26257.08020245 -.00000047  00000-0 -48576-5 0  9997
2 06236 101.9892 281.2956 0004202 345.4651  33.4617 12.53213177466101

Traccia OSCAR 6 in tempo reale con AllMySat

Download on the App Store